Weather History for Brownwood, TX

Change the Weather History Date:

Friday, January 11, 2013

  Actual Average (KABI) Record (KABI)
Temperature  
Mean Temperature 56 °F 44 °F  
Max Temperature 71 °F 56 °F 82 °F (1907)
Min Temperature 41 °F 33 °F 1 °F (1918)
Degree Days  
Heating Degree Days 9 20  
Month to date heating degree days 230  
Since 1 July heating degree days 1275  
Cooling Degree Days 0 0  
Month to date cooling degree days 0  
Year to date cooling degree days 0  
Growing Degree Days 6 (Base 50)    
Moisture  
Dew Point 48 °F    
Average Humidity 76    
Maximum Humidity 94    
Minimum Humidity 50    
Precipitation  
Precipitation 0.00 in 0.02 in 0.83 in (1939)
Month to date precipitation 0.32  
Year to date precipitation 0.32  
Sea Level Pressure  
Sea Level Pressure 29.86 in    
Wind  
Wind Speed 7 mph (SSE)    
Max Wind Speed 23 mph    
Max Gust Speed 30 mph    
Visibility 10 miles    
Events      
T = Trace of Precipitation, MM = Missing Value Source: NWS Daily Summary

Daily Weather History Graph

Daily Weather History Graph

Search for Another Location

Airport:

Trip Planner

Search our weather history database for the weather conditions in past years. The results will help you decide how hot, cold, wet, or windy it might be!

Date:

Astronomy

Jan. 11, 2013 Rise Set
Actual Time 7:36 AM CST 5:51 PM CST
Civil Twilight 7:10 AM CST 6:17 PM CST
Nautical Twilight 6:40 AM CST 6:47 PM CST
Astronomical Twilight 6:10 AM CST 7:17 PM CST
Moon 7:13 AM CST (1/11) 6:07 PM CST (1/11)
Length of Visible Light 11h 07m
Length of Day
10h 14m
Waning Crescent, 0% of the Moon is Illuminated
Jan 11
Waning Crescent
Jan 11
New
Jan 18
First Quarter
Jan 26
Full
Feb 3
Last Quarter

Hourly Weather History & Observations

Time (CST) Temp. Windchill Dew Point Humidity Pressure Visibility Wind Dir Wind Speed Gust Speed Precip Events Conditions
12:15 AM 44.6 °F 40.7 °F 41.0 °F 87% 29.95 in 10.0 mi SSE 6.9 mph - N/A   Clear
12:35 AM 44.6 °F 43.1 °F 41.0 °F 87% 29.96 in 10.0 mi South 3.5 mph - N/A   Clear
12:55 AM 42.8 °F 41.1 °F 41.0 °F 93% 29.95 in 10.0 mi SSE 3.5 mph - N/A   Clear
1:15 AM 44.6 °F 42.2 °F 41.0 °F 87% 29.95 in 10.0 mi South 4.6 mph - N/A   Clear
1:35 AM 42.8 °F - 41.0 °F 93% 29.95 in 10.0 mi Calm Calm - N/A   Clear
1:55 AM 42.8 °F 41.1 °F 41.0 °F 93% 29.95 in 10.0 mi South 3.5 mph - N/A   Clear
2:15 AM 42.8 °F - 41.0 °F 93% 29.94 in 10.0 mi Calm Calm - N/A   Partly Cloudy
2:35 AM 41.0 °F 38.0 °F 39.2 °F 93% 29.94 in 10.0 mi SSE 4.6 mph - N/A   Clear
2:55 AM 41.0 °F 39.0 °F 39.2 °F 93% 29.93 in 10.0 mi South 3.5 mph - N/A   Clear
3:15 AM 42.8 °F 41.1 °F 39.2 °F 87% 29.93 in 10.0 mi South 3.5 mph - N/A   Clear
3:35 AM 41.0 °F - 39.2 °F 93% 29.93 in 10.0 mi Calm Calm - N/A   Clear
3:55 AM 41.0 °F 38.0 °F 39.2 °F 93% 29.92 in 10.0 mi SSE 4.6 mph - N/A   Clear
4:15 AM 44.6 °F 42.2 °F 39.2 °F 81% 29.90 in 10.0 mi SSE 4.6 mph - N/A   Clear
4:35 AM 44.6 °F 40.2 °F 39.2 °F 81% 29.91 in 10.0 mi South 8.1 mph - N/A   Clear
4:55 AM 46.4 °F 41.9 °F 39.2 °F 76% 29.91 in 10.0 mi SSE 9.2 mph - N/A   Clear
5:15 AM 46.4 °F 41.9 °F 39.2 °F 76% 29.90 in 10.0 mi SE 9.2 mph - N/A   Clear
5:35 AM 44.6 °F 40.2 °F 39.2 °F 81% 29.91 in 10.0 mi SE 8.1 mph - N/A   Clear
5:55 AM 44.6 °F 41.4 °F 39.2 °F 81% 29.90 in 10.0 mi SE 5.8 mph - N/A   Clear
6:15 AM 44.6 °F 40.7 °F 39.2 °F 81% 29.90 in 10.0 mi SE 6.9 mph - N/A   Clear
6:35 AM 41.0 °F 35.8 °F 39.2 °F 93% 29.90 in 10.0 mi ESE 8.1 mph - N/A   Clear
6:55 AM 42.8 °F 38.6 °F 39.2 °F 87% 29.90 in 10.0 mi SE 6.9 mph - N/A   Clear
7:15 AM 44.6 °F 43.1 °F 39.2 °F 81% 29.90 in 10.0 mi SE 3.5 mph - N/A   Clear
7:35 AM 44.6 °F 41.4 °F 39.2 °F 81% 29.90 in 10.0 mi SE 5.8 mph - N/A   Clear
7:55 AM 44.6 °F - 41.0 °F 87% 29.92 in 10.0 mi Calm Calm - N/A   Clear
8:15 AM 44.6 °F 43.1 °F 41.0 °F 87% 29.92 in 10.0 mi SSE 3.5 mph - N/A   Clear
8:35 AM 44.6 °F 43.1 °F 41.0 °F 87% 29.93 in 10.0 mi SE 3.5 mph - N/A   Clear
8:55 AM 48.2 °F - 44.6 °F 87% 29.93 in 10.0 mi SSE 6.9 mph - N/A   Clear
9:15 AM 50.0 °F - 44.6 °F 82% 29.94 in 10.0 mi SSW 5.8 mph - N/A   Clear
9:35 AM 53.6 °F - 46.4 °F 77% 29.93 in 10.0 mi South 5.8 mph - N/A   Clear
9:55 AM 55.4 °F - 48.2 °F 77% 29.93 in 10.0 mi South 5.8 mph - N/A   Clear
10:15 AM 57.2 °F - 50.0 °F 77% 29.92 in 10.0 mi South 13.8 mph 18.4 mph N/A   Clear
10:35 AM 59.0 °F - 50.0 °F 72% 29.92 in 10.0 mi South 12.7 mph 19.6 mph N/A   Clear
10:55 AM 62.6 °F - 51.8 °F 68% 29.90 in 10.0 mi SSW 18.4 mph 25.3 mph N/A   Clear
11:35 AM 64.4 °F - 51.8 °F 64% 29.87 in 10.0 mi South 18.4 mph 24.2 mph N/A   Clear
12:15 PM 66.2 °F - 53.6 °F 64% 29.84 in 10.0 mi South 21.9 mph 29.9 mph N/A   Clear
12:35 PM 64.4 °F - 53.6 °F 68% 29.83 in 10.0 mi South 23.0 mph 28.8 mph N/A   Clear
1:15 PM 66.2 °F - 53.6 °F 64% 29.81 in 10.0 mi South 13.8 mph 25.3 mph N/A   Clear
1:35 PM 68.0 °F - 53.6 °F 60% 29.79 in 10.0 mi South 16.1 mph 20.7 mph N/A   Clear
1:55 PM 69.8 °F - 55.4 °F 60% 29.80 in 10.0 mi South 16.1 mph 21.9 mph N/A   Clear
2:35 PM 71.6 °F - 53.6 °F 53% 29.79 in 10.0 mi South 16.1 mph - N/A   Clear
2:55 PM 69.8 °F - 53.6 °F 56% 29.78 in 10.0 mi South 16.1 mph 19.6 mph N/A   Clear
3:15 PM 71.6 °F - 53.6 °F 53% 29.77 in 10.0 mi South 13.8 mph - N/A   Clear
3:35 PM 71.6 °F - 53.6 °F 53% 29.77 in 10.0 mi South 9.2 mph - N/A   Clear
3:55 PM 71.6 °F - 51.8 °F 50% 29.77 in 10.0 mi South 16.1 mph 24.2 mph N/A   Clear
4:15 PM 71.6 °F - 51.8 °F 50% 29.77 in 10.0 mi South 10.4 mph - N/A   Clear
4:35 PM 69.8 °F - 51.8 °F 53% 29.78 in 10.0 mi South 11.5 mph 16.1 mph N/A   Clear
4:55 PM 68.0 °F - 51.8 °F 56% 29.78 in 10.0 mi South 8.1 mph - N/A   Clear
5:15 PM 68.0 °F - 51.8 °F 56% 29.77 in 10.0 mi SSE 8.1 mph - N/A   Clear
5:35 PM 66.2 °F - 53.6 °F 64% 29.78 in 10.0 mi SSE 9.2 mph - N/A   Clear
5:55 PM 66.2 °F - 53.6 °F 64% 29.79 in 10.0 mi South 10.4 mph - N/A   Clear
6:15 PM 64.4 °F - 53.6 °F 68% 29.79 in 10.0 mi SSE 9.2 mph - N/A   Clear
6:35 PM 64.4 °F - 53.6 °F 68% 29.78 in 10.0 mi SSE 10.4 mph - N/A   Clear
6:55 PM 64.4 °F - 53.6 °F 68% 29.79 in 10.0 mi SSE 9.2 mph - N/A   Clear
7:15 PM 62.6 °F - 53.6 °F 72% 29.79 in 10.0 mi SE 8.1 mph - N/A   Clear
7:35 PM 60.8 °F - 53.6 °F 77% 29.80 in 10.0 mi SE 6.9 mph - N/A   Clear
7:55 PM 62.6 °F - 53.6 °F 72% 29.80 in 10.0 mi SSE 11.5 mph - N/A   Clear
8:15 PM 62.6 °F - 53.6 °F 72% 29.82 in 10.0 mi South 10.4 mph - N/A   Clear
8:35 PM 60.8 °F - 53.6 °F 77% 29.82 in 10.0 mi South 9.2 mph - N/A   Clear
8:55 PM 59.0 °F - 53.6 °F 82% 29.82 in 10.0 mi SSE 8.1 mph - N/A   Clear
9:15 PM 59.0 °F - 53.6 °F 82% 29.83 in 10.0 mi SSE 8.1 mph - N/A   Clear
10:15 PM 59.0 °F - 55.4 °F 88% 29.84 in 10.0 mi South 9.2 mph - N/A   Clear
10:35 PM 59.0 °F - 55.4 °F 88% 29.85 in 10.0 mi SSE 4.6 mph - N/A   Clear
10:55 PM 57.2 °F - 55.4 °F 94% 29.85 in 10.0 mi SW 4.6 mph - N/A   Partly Cloudy
11:35 PM 59.0 °F - 55.4 °F 88% 29.80 in 9.0 mi ESE 10.4 mph - N/A   Mostly Cloudy
11:55 PM 59.0 °F - 55.4 °F 88% 29.80 in 10.0 mi ESE 6.9 mph - N/A   Mostly Cloudy